User: anonymous   Login
Location: Unspecified
(0.0000°N, 0.0000°E)
Time: 22:18:11
(UTC+00:00)
Language:

MOZHAYETS 4 - Orbit

View from above orbital plane
View from above orbital plane
View from above satellite
View from above satellite

Ground track
Ground track

The orbit data is extracted from the following two-line orbital elements,

1 27939U 03042A   19107.90188263 +.00000076 +00000-0 +22238-4 0  9998
2 27939 098.0289 244.9598 0011415 261.6804 098.3097 14.66770139831482
Epoch (UTC): 17 April 2019 21:38:42
Eccentricity: 0.0011415
inclination: 98.0289°
perigee height: 663 km
apogee height: 679 km
right ascension of ascending node: 244.9598°
argument of perigee: 261.6804°
revolutions per day: 14.66770139
mean anomaly at epoch: 98.3097°
orbit number at epoch: 83148

The dashed part of the orbit path shows where the satellite is in the earth's shadow,  

DLR